Location: Madrid
(40.4167°N, 3.7036°W)
Time: 08:30:22
(UTC+00:00)

ISS - Pass Details

Date: 12 May 2025
Orbit: 416 x 420 km, 51.6° (Epoch: 12 May)

Event Time Altitude Azimuth Distance (km) Brightness Sun altitude
Rises 22:34:56 0° 298° (WNW) 2,359 0.8 -27.1°
Reaches altitude 10° 22:38:03 10° 330° (NNW) 1,496 0.0 -27.3°
Maximum altitude 22:39:33 12° 356° (N) 1,359 -0.4 -27.5°
Drops below altitude 10° 22:41:03 10° 23° (NNE) 1,496 -0.5 -27.6°
Enters shadow 22:42:02 - 36° (NE) 1,713 -0.3 -27.6°
